Voltar ao catálogo

CZ-4 DEB

AtivoPO
NORAD 35270·DEBRIS·🇨🇳 China

Lançado Sep 8, 2004 de Taiyuan Satellite Launch Center

Loading…

Próximas Passagens (próximas 24 horas)

TLE

AtualizadoSource: Space-Track

Época: Sep 13, 2026, 03:28 UTC

1 35270U 04035N   26256.14483085  .00044506  00000-0  12412-2 0  9994
2 35270  97.8743 210.9359 0045574 177.2137 182.9368 15.35561829165047

Acompanhe CZ-4 DEB em tempo real com AllMySat

Download on the App Store